Tracking 28096 objects as of 29-Sep-2023
HD Live streaming from Space Station
objects crossing your sky now

DELTA 1 DEB

Track DELTA 1 DEB now!
10-day predictions


NORAD ID: 12531
Int'l Code: 1976-077DL
Perigee: 1,499.2 km
Apogee: 1,714.0 km
Inclination: 101.7 °
Period: 118.2 minutes
Semi major axis: 7977 km
RCS: 0.0772 m2 (small)
Launch date: July 29, 1976
Source: United States (US)
Launch site: AIR FORCE WESTERN TEST RANGE (AFWTR)

Note: This is SATELLITE DEBRIS
Your satellite tracking list
Your tracking list is empty




NASA's NSSDC Master Catalog

Two Line Element Set (TLE):
1 12531U 76077DL  23270.50933741  .00000029  00000-0  65550-3 0  9990
2 12531 101.7408 114.6192 0134658 104.3392 313.8853 12.18413840926536
Source of the keplerian elements: AFSPC